Retour au catalogue

PEGASUS DEB

ActifPO
NORAD 39318·DEBRIS·🇺🇸 United States

Lancé May 19, 1994 depuis Vandenberg Space Force Base

Loading…

Prochains Passages (prochaines 24 heures)

TLE

FraisSource: Space-Track

Époque: Sep 12, 2026, 13:36 UTC

1 39318U 94029AFD 26255.56731690  .00000930  00000-0  12968-3 0  9996
2 39318  81.9471 347.7625 0185607  91.9270 330.4571 14.65338060290870

Suivez PEGASUS DEB en temps réel avec AllMySat

Download on the App Store